Simultaneous Nadir Overpasses (SNOs) Predictions

Prediction of SNOs over PacNW region [( 10.00, 139.50) to ( 22.70, 165.60)] between AQUA and NPP Satellites:

Table of predicted SNOs over PacNW region for the next 30.0 days since TLE Epoch: 6/10/2023
Index Date (AQUA) Time (AQUA) AQUA Lat,Lon Date (NPP) Time (NPP) NPP Lat,Lon Distance(km) Time Diff (sec)
1 06/18/2023 16:03:22 22.09, 149.96 06/18/2023 16:03:12 23.09, 144.64 557.78 10
2 07/01/2023 15:20:18 19.18, 160.39 07/01/2023 15:19:20 20.19, 155.06 569.27 58
3 07/04/2023 03:38:38 22.65, 149.48 07/04/2023 03:35:09 24.35, 143.93 596.29 209
